Home > Weather > Aurora > Past weeks

Flag for USA Weather for the Past 2 Weeks in Aurora, Illinois, USA

Now
45 °F

Partly sunny.


Feels Like: 41 °F
Forecast: 43 / 56 °F
Wind: 8 mph from Northeast

Location: Dupage Airport

Current Time: May 2, 2016 at 7:59:03 AM

Latest Report: May 2, 2016 at 6:52 AM


Visibility: 10 mi

Pressure: 30.06 "Hg

Humidity: 76%

Dew Point: 38 °F

Location of AuroraLocation

Historic Weather in Aurora — Graph

°F

Aurora Temperature Yesterday

Maximum temperature yesterday: 50 °F (at 2:52 PM)
Minimum temperature yesterday: 44 °F (at 5:52 AM)
Average temperature yesterday: 47 °F

High & Low Weather Summary for the Past Weeks

 TemperatureHumidityPressure
High82 °F (Apr 25, 2:52 PM)93% (Apr 21, 5:01 AM)30.40 "Hg (Apr 21, 5:01 AM)
Low34 °F (Apr 23, 5:52 AM)21% (Apr 18, 4:52 PM)29.57 "Hg (Apr 25, 6:52 PM)
Average54 °F69%29.99 "Hg
* Reported Apr 17 6:52 AM — May 2 6:52 AM, Aurora, Weather by CustomWeather, © 2016

Note: Actual official high and low records may vary slightly from our data, if they occured in-between our weather recording intervals... More about our weather records

Advertising

Aurora Weather History for the Previous 24 Hours

Scroll right to see more
 ConditionsComfort  
Time TempWeatherWind HumidityBarometerVisibility
6:52 AM
Mon, May 2
45 °FPartly sunny.8 mph76%30.06 "Hg10 mi
5:52 AM43 °FOvercast.9 mph79%30.05 "Hg10 mi
4:52 AM45 °FOvercast.8 mph76%30.04 "Hg10 mi
3:52 AM45 °FOvercast.13 mph80%30.02 "Hg10 mi
2:52 AM45 °FOvercast.9 mph82%30.03 "Hg10 mi
1:52 AM45 °FOvercast.12 mph86%30.02 "Hg10 mi
12:52 AM45 °FLow clouds.12 mph90%30.02 "Hg10 mi
11:52 PM
Sun, May 1
47 °FLow clouds.13 mph86%30.01 "Hg10 mi
10:52 PM48 °FLight rain. Low clouds.9 mph86%30.00 "Hg10 mi
9:52 PM47 °FLow clouds.7 mph90%30.01 "Hg10 mi
8:57 PM46 °FRain. Fog.3 mph93%29.98 "Hg4 mi
7:52 PM46 °FHeavy rain. Fog.8 mph89%29.98 "Hg3 mi
6:52 PM47 °FLight rain. Overcast.16 mph86%29.95 "Hg8 mi
5:52 PM49 °FOvercast.13 mph80%29.97 "Hg9 mi
4:52 PM49 °FOvercast.14 mph80%29.98 "Hg9 mi
3:52 PM50 °FOvercast.12 mph80%30.00 "Hg9 mi
2:52 PM50 °FLow clouds.12 mph80%30.01 "Hg8 mi
1:52 PM49 °FLow clouds.13 mph80%30.00 "Hg8 mi
12:52 PM47 °FFog.14 mph90%30.00 "Hg6 mi
11:52 AM47 °FFog.13 mph90%30.00 "Hg5 mi
10:52 AM46 °FFog.9 mph89%30.00 "Hg3 mi
9:52 AM45 °FFog.15 mph90%30.00 "Hg3 mi
8:52 AM44 °FFog.12 mph93%30.00 "Hg2 mi
8:00 AM44 °FFog.15 mph93%29.98 "Hg2 mi
Weather by CustomWeather, © 2016

See weather overviewHow to use our weather pages